Tracking 20232 objects as of 18-Jan-2020
HD Live streaming from Space Station
objects crossing your sky now

COSMOS 2251 DEB

Track COSMOS 2251 DEB now!
10-day predictions


NORAD ID: 34141
Int'l Code: 1993-036LN
Perigee: 747.4 km
Apogee: 858.0 km
Inclination: 74.0 °
Period: 100.8 minutes
Semi major axis: 7173 km
RCS: 0.033 m2 (small)
Launch date: June 16, 1993
Source: Commonwealth of Independent States (former USSR) (CIS)
Launch site: PLESETSK MISSILE AND SPACE COMPLEX (PKMTR)

Note: This is SATELLITE DEBRIS
aabbcc
Your satellite tracking list
Your tracking list is empty




NASA's NSSDC Master Catalog

Two Line Element Set (TLE):
1 34141U 93036LN  20018.36413053 +.00000245 +00000-0 +10422-3 0  9993
2 34141 074.0181 022.0877 0077092 259.3806 224.8035 14.28854512567855
Source of the keplerian elements: AFSPC